Back to catalog

STARLINK-2224

AliveCommunicationsVLEO
NORAD 48573·PAYLOAD·🇺🇸 United States

Launched May 15, 2021 from Cape Canaveral Space Force Station

Loading…

Next Passes (next 24 hours)

TLE

FreshSource: CelesTrak SupGP

Epoch: Sep 14, 2026, 19:38 UTC

1 48573C 21041W   26257.81854167 -.00031155  00000+0 -10016-2 0  2570
2 48573  53.1578 327.2101 0001281  88.7501 236.5602 15.31726469    14

Track STARLINK-2224 in real time with AllMySat

Download on the App Store